Vorticity
4 0 2 3 5 7 11 9 9 6 4 3 3 4 5 4 3 5 6 7 8 6 6 6 6 5 4 4 2 3 5 5 5 4 5 4 3 5 4 7 5 5 5
1 3 3 1 3 5 10 8 7 4 3 3 4 4 5 4 3 4 4 6 6 7 6 6 5 5 4 3 5 6 4 4 5 6 6 5 5 5 6 4 5 5 8
-1 0 3 2 2 3 8 9 6 4 3 3 4 3 4 2 1 3 3 4 4 6 6 6 6 5 5 5 5 4 4 6 7 7 8 6 5 5 5 3 4 5 5
5 3 1 3 2 2 4 10 5 3 3 3 6 4 4 3 1 3 5 6 6 6 5 6 5 5 5 4 4 6 5 5 5 5 5 6 5 5 4 3 4 6 5
11 6 -2 1 2 1 3 6 8 4 3 2 5 5 3 4 3 3 4 4 5 5 6 4 4 4 3 4 4 4 4 5 5 5 6 7 6 5 5 5 4 5 5
6 7 8 5 2 1 -1 3 8 6 3 2 6 6 3 4 4 4 4 5 6 6 4 4 4 3 4 5 5 3 3 4 3 5 6 7 6 6 6 6 5 4 5
10 7 6 6 5 2 2 -2 2 8 5 2 0 5 5 3 4 3 4 4 3 4 4 5 4 3 4 4 4 4 5 4 4 4 8 7 7 6 6 6 6 5 5
3 7 10 6 6 5 0 4 0 2 8 5 1 1 5 5 4 3 3 4 4 3 4 5 4 5 5 3 3 5 4 5 3 5 5 10 9 6 7 6 6 5 5
2 2 3 3 12 8 6 1 3 2 2 7 4 3 1 5 5 4 4 4 2 3 3 4 6 6 5 -0 3 3 2 2 4 8 16 10 8 8 7 6 6 6 6
6 2 2 2 4 2 9 6 4 2 2 1 7 4 3 1 4 5 5 4 3 2 3 4 5 7 3 1 4 1 3 2 4 -1 7 9 8 8 8 8 7 6 6
7 7 8 3 3 1 2 10 6 4 2 3 2 7 2 5 2 4 5 4 3 3 4 4 6 6 4 1 1 4 1 -1 2 5 5 9 8 6 7 8 7 7 6
6 6 8 8 6 3 2 1 10 6 5 2 2 3 6 4 6 2 4 4 3 4 4 4 4 6 6 3 1 6 1 0 1 -0 5 12 8 9 6 6 7 7 6
11 9 6 5 7 9 5 3 3 9 7 5 2 1 5 4 4 6 3 4 4 4 4 5 4 6 7 3 3 5 2 -0 4 3 7 15 9 5 8 6 6 6 7
7 9 7 6 3 4 8 6 5 1 7 7 4 1 2 6 5 6 4 3 3 4 4 4 4 4 5 5 4 3 2 0 0 2 1 9 14 8 7 8 7 7 6
12 11 11 12 15 5 1 10 2 7 2 6 7 2 1 3 7 5 5 4 3 3 3 4 3 3 3 5 6 5 3 1 3 -2 4 8 10 10 10 6 6 5 5
10 10 11 10 9 18 7 2 34 7 7 3 8 8 1 2 4 8 5 5 4 3 3 3 4 3 4 4 8 6 3 -0 2 -1 4 3 12 11 9 6 5 3 5
14 12 10 12 13 14 24 8 -9 3 10 8 10 10 1 2 1 6 7 5 5 4 4 3 4 4 4 5 6 7 4 3 2 -0 2 7 9 10 14 7 5 5 4
17 20 20 13 19 16 31 21 10 10 -3 -20 37 10 12 3 2 1 7 7 5 5 4 4 4 4 4 5 5 7 5 3 1 2 -1 5 -1 4 3 10 13 7 6
20 18 15 17 13 16 21 33 22 2 9 -54 -15 24 9 4 -1 0 5 7 6 6 5 5 4 4 4 5 4 6 4 4 3 3 -0 -0 3 10 1 1 4 6 9
10 8 12 10 2 19 6 20 35 17 1 32 -36 38 -44 0 -8 8 1 7 8 6 6 5 5 4 4 5 6 4 5 6 2 4 -1 4 0 3 4 2 4 9 7
16 7 7 12 8 10 14 7 27 32 19 6 1 -22 -4 5 -14 17 -1 6 8 7 7 6 6 5 5 6 5 6 6 6 6 6 1 2 0 3 6 5 6 5 9
10 12 7 7 20 16 20 -3 -1 46 16 20 15 19 26 26 38 14 3 2 8 7 7 6 6 6 5 6 5 5 7 6 6 8 4 2 4 8 6 7 6 6 9
17 14 12 4 1 5 5 19 9 12 52 14 8 -31 10 -11 37 -2 -3 3 7 8 7 6 7 6 6 6 6 5 6 7 7 7 5 6 8 7 -6 -19 -10 3 12
18 3 5 14 11 8 4 8 8 -3 34 38 30 -28 34 37 15 36 -7 -0 5 6 7 7 6 7 5 5 6 7 6 7 4 7 6 4 9 2 14 -6 9 1 9
12 9 21 18 17 6 18 21 5 6 -12 33 43 13 -13 4 1 -4 6 7 4 6 7 7 6 2 3 4 -1 3 4 3 9 2 10 10 5 -1 -6 9 12 20 9
21 26 24 3 7 0 18 2 13 16 4 0 52 22 -6 -49 3 41 -1 -24 2 4 7 7 6 6 5 6 7 7 2 -3 5 7 6 9 0 6 6 0 -0 2 11
Height
5869 5869 5869 5869 5869 5868 5868 5868 5868 5868 5868 5869 5870 5870 5869 5869 5870 5869 5869 5868 5868 5867 5867 5867 5867 5867 5868 5868 5868 5868 5868 5867 5866 5866 5865 5865 5864 5863 5861 5861 5860 5859 5858
5866 5867 5867 5867 5868 5867 5867 5868 5868 5867 5867 5868 5869 5869 5869 5869 5869 5869 5868 5868 5868 5867 5867 5867 5867 5867 5867 5867 5867 5867 5867 5866 5866 5865 5864 5864 5863 5862 5861 5860 5859 5858 5857
5862 5863 5864 5865 5866 5866 5866 5867 5867 5867 5867 5867 5867 5868 5869 5869 5868 5868 5868 5867 5867 5867 5867 5866 5867 5867 5867 5867 5867 5866 5866 5866 5865 5864 5863 5863 5862 5861 5860 5859 5858 5857 5856
5858 5860 5861 5862 5863 5864 5864 5865 5866 5866 5866 5866 5866 5867 5868 5868 5868 5867 5867 5867 5867 5867 5867 5867 5866 5867 5867 5867 5867 5867 5866 5866 5865 5863 5863 5862 5861 5860 5859 5857 5857 5855 5854
5855 5855 5857 5858 5860 5861 5862 5863 5864 5865 5865 5865 5865 5865 5866 5867 5867 5867 5867 5867 5866 5866 5866 5866 5866 5866 5866 5866 5866 5866 5866 5865 5864 5862 5861 5860 5859 5858 5857 5856 5855 5854 5852
5849 5850 5851 5853 5855 5856 5857 5859 5860 5862 5863 5863 5863 5864 5863 5864 5865 5866 5866 5866 5866 5865 5865 5865 5865 5865 5865 5865 5865 5865 5864 5864 5862 5861 5860 5859 5857 5856 5855 5854 5853 5852 5850
5841 5844 5844 5846 5848 5850 5853 5854 5856 5857 5859 5860 5860 5861 5862 5862 5862 5863 5864 5864 5865 5865 5864 5863 5864 5864 5864 5864 5864 5864 5863 5863 5861 5860 5858 5857 5856 5854 5853 5852 5851 5849 5848
5831 5837 5838 5838 5841 5843 5846 5849 5851 5853 5854 5857 5858 5858 5859 5860 5860 5860 5861 5862 5862 5863 5863 5862 5862 5863 5863 5864 5864 5863 5862 5861 5859 5858 5857 5855 5854 5852 5851 5850 5848 5847 5845
5823 5826 5830 5830 5832 5836 5838 5842 5845 5847 5849 5851 5853 5855 5856 5856 5857 5858 5858 5858 5859 5860 5860 5860 5861 5861 5861 5862 5862 5861 5860 5859 5858 5856 5854 5853 5852 5850 5849 5847 5845 5844 5842
5813 5816 5819 5822 5824 5828 5830 5833 5837 5840 5843 5845 5846 5849 5852 5853 5853 5854 5855 5856 5856 5857 5858 5858 5858 5859 5859 5859 5859 5859 5858 5858 5856 5854 5852 5850 5849 5847 5845 5844 5843 5841 5839
5803 5805 5808 5811 5815 5817 5820 5824 5827 5832 5835 5838 5840 5843 5845 5848 5849 5850 5851 5852 5853 5854 5855 5855 5856 5856 5856 5857 5857 5857 5855 5855 5854 5853 5850 5848 5846 5844 5843 5841 5840 5839 5837
5792 5793 5796 5798 5803 5807 5809 5814 5818 5822 5826 5830 5833 5836 5840 5841 5843 5846 5846 5848 5849 5850 5851 5852 5853 5853 5853 5854 5854 5854 5853 5853 5851 5850 5848 5845 5843 5842 5841 5839 5837 5836 5834
5781 5781 5783 5787 5790 5794 5798 5801 5808 5812 5816 5821 5825 5829 5832 5834 5836 5840 5841 5843 5844 5846 5847 5848 5849 5849 5850 5850 5851 5851 5850 5850 5849 5847 5845 5843 5841 5839 5838 5836 5834 5833 5831
5765 5767 5770 5773 5777 5782 5785 5789 5794 5801 5805 5810 5815 5820 5824 5825 5829 5832 5835 5836 5838 5840 5842 5843 5845 5845 5846 5846 5847 5847 5846 5847 5845 5844 5842 5840 5838 5837 5835 5833 5832 5830 5828
5752 5753 5754 5758 5762 5767 5773 5778 5781 5788 5793 5798 5803 5810 5816 5818 5821 5824 5827 5830 5832 5834 5836 5838 5839 5840 5841 5842 5842 5843 5843 5842 5842 5841 5839 5837 5835 5833 5832 5830 5828 5826 5824
5734 5735 5738 5742 5745 5750 5758 5765 5760 5774 5781 5785 5791 5797 5804 5808 5812 5816 5820 5823 5826 5828 5830 5832 5833 5835 5836 5837 5837 5838 5839 5837 5838 5837 5836 5834 5832 5830 5828 5827 5825 5823 5821
5715 5717 5720 5723 5727 5733 5738 5746 5753 5765 5767 5774 5778 5782 5790 5796 5802 5806 5811 5815 5819 5822 5824 5826 5828 5829 5830 5831 5832 5833 5833 5834 5833 5833 5831 5830 5828 5826 5825 5823 5821 5819 5817
5696 5699 5701 5705 5709 5714 5721 5727 5734 5742 5752 5759 5759 5768 5775 5782 5791 5796 5800 5806 5811 5814 5817 5820 5822 5824 5824 5826 5827 5827 5827 5828 5828 5827 5826 5825 5824 5822 5821 5819 5817 5814 5812
5681 5683 5686 5690 5695 5700 5704 5708 5715 5722 5733 5741 5746 5753 5764 5772 5779 5785 5790 5795 5801 5806 5810 5813 5816 5817 5819 5820 5821 5822 5822 5822 5823 5822 5821 5820 5819 5817 5816 5814 5812 5809 5807
5668 5670 5674 5678 5682 5687 5690 5692 5697 5705 5714 5725 5735 5744 5746 5761 5769 5775 5778 5785 5792 5797 5802 5806 5809 5811 5813 5814 5815 5816 5816 5816 5816 5816 5816 5815 5813 5811 5810 5808 5806 5804 5801
5654 5657 5660 5664 5669 5674 5678 5681 5683 5688 5695 5708 5722 5733 5741 5742 5753 5765 5768 5775 5782 5788 5793 5797 5802 5804 5806 5808 5809 5810 5811 5810 5810 5810 5810 5809 5807 5806 5804 5802 5799 5797 5794
5642 5644 5647 5652 5657 5661 5665 5667 5671 5674 5680 5692 5707 5719 5732 5739 5734 5751 5760 5765 5772 5778 5785 5789 5794 5797 5800 5801 5802 5804 5804 5805 5804 5804 5803 5802 5801 5799 5798 5796 5793 5791 5787
5633 5633 5635 5640 5644 5647 5650 5654 5658 5661 5667 5678 5693 5707 5715 5725 5730 5740 5749 5755 5762 5770 5776 5781 5786 5790 5792 5794 5795 5797 5797 5798 5797 5797 5796 5795 5794 5792 5790 5788 5785 5782 5779
5621 5621 5622 5625 5628 5632 5636 5642 5648 5651 5655 5666 5678 5689 5704 5714 5718 5724 5735 5743 5752 5760 5767 5773 5778 5783 5784 5787 5788 5790 5790 5791 5790 5789 5788 5787 5786 5784 5781 5778 5776 5774 5770
5603 5602 5606 5610 5613 5618 5622 5627 5633 5641 5647 5656 5666 5679 5689 5700 5707 5713 5720 5731 5742 5751 5758 5764 5770 5774 5777 5779 5781 5782 5783 5783 5782 5781 5781 5780 5777 5775 5772 5769 5766 5763 5760
5586 5586 5589 5594 5600 5604 5609 5614 5621 5631 5639 5648 5656 5668 5681 5691 5700 5706 5715 5726 5732 5743 5751 5757 5763 5766 5769 5772 5774 5776 5776 5774 5774 5774 5773 5772 5769 5767 5763 5760 5757 5754 5750